Weather in Tsolga

Russia / Republic of Buryatia     51°04′42″N   107°14′44″E
temp.,
°C
wind,
m/s
gust,
m/s
humid.,
%
clouds,
%
prec.,
mm/h
press.,
hPa
HPBL,
m
23 september, thu
thu2323:00+6wsw3584100 1.7 1017584
02:00+5wsw1284100 2.8 101955
05:00+5nw368789 0.1 1021604
08:00+6wsw248158 0.1 1022418
11:00+9wsw336256 0.0 10221062
14:00+12s334828 0.0 10201532
17:00+12sse33476 0.0 10191375
20:00+7se33655 0.0 102131
24 september, fri
fri2423:00+5ese22755 0.0 102216
02:00+3e2280100 0.0 102215
05:00+3ene228299 0.0 102116
08:00+5e3476100 0.1 1020145
11:00+10ene3457100 0.2 1017537
14:00+13ne124663 0.2 1015907
17:00+15n0145100 0.0 1014800
20:00+8ne2271100 0.0 101714
25 september, sat
sat2523:00+6ene228067 0.0 101810
02:00+5ne22855 0.0 101913
05:00+4nne2386100 0.0 101955
08:00+7nne41281100 0.0 1019630
11:00+8n71174100 0.0 1016763
14:00+7n71079100 0.0 1015834
17:00+4nnw41092100 3.5 1016564
20:00+3wnw1393100 3.6 1017318
26 september, sun
sun2623:00+4nw2789100 0.1 1015571
02:00+3nw3997100 0.4 1015676
05:00+2nw3998100 1.4 1014573
08:00+2wnw3994100 2.8 1015701
11:00+3wnw51092100 2.3 1016848
14:00+5w6877100 2.6 10161166
17:00+5wsw348098 0.1 1016726
20:00+4s239299 0.3 1017188
27 september, mon
mon2723:00+3s22926 0.1 101554
02:000ssw11979 0.1 101613
05:00−1s119713 0.0 101415
08:00+1se119212 0.0 101363
11:00+6n117294 0.0 1012638
14:00+9nnw1154100 0.0 10101171
17:00+8nnw5454100 0.0 1009967
20:00+3nnw3992100 0.1 1014567